PTPBK SBRJ-SBGW

Flight info

Callsign PTPBK
Flight time 0h 54m
Altitude 6500
Route DCT
Aircraft AEST/L-SDFGRY/S

Departure

Time 2026-04-23 20:29
Airport Santos Dumont Airport (SBRJ)

Arrival

Time 2026-04-23 21:24
Airport Edu Chaves Field (SBGW)
Time Latitude Longitude Altitude Speed Heading
2026-04-23 20:19 -22.90570 -43.16499 25 ft 0 kts 176°
2026-04-23 20:26 -22.90576 -43.16499 25 ft 4 kts 169°
2026-04-23 20:27 -22.90577 -43.16460 25 ft 4 kts 62°
2026-04-23 20:27 -22.90516 -43.16461 25 ft 7 kts 358°
2026-04-23 20:27 -22.90514 -43.16461 25 ft 0 kts 359°
2026-04-23 20:27 -22.90492 -43.16431 26 ft 12 kts 87°
2026-04-23 20:28 -22.90492 -43.16321 25 ft 10 kts 119°
2026-04-23 20:28 -22.90536 -43.16316 26 ft 0 kts 175°
2026-04-23 20:28 -22.90537 -43.16316 26 ft 0 kts 175°
2026-04-23 20:29 -22.90666 -43.16307 26 ft 61 kts 176°
2026-04-23 20:29 -22.91267 -43.16253 92 ft 101 kts 173°
2026-04-23 20:29 -22.92208 -43.15958 622 ft 110 kts 141°
2026-04-23 20:30 -22.92733 -43.15277 966 ft 122 kts 140°
2026-04-23 20:30 -22.93963 -43.14586 1630 ft 122 kts 151°
2026-04-23 20:30 -22.94732 -43.14169 1926 ft 132 kts 163°
2026-04-23 20:31 -22.95710 -43.14022 2059 ft 152 kts 169°
2026-04-23 20:31 -22.96834 -43.13933 2088 ft 172 kts 183°
2026-04-23 20:31 -22.98078 -43.14142 2072 ft 187 kts 187°
2026-04-23 20:31 -22.99398 -43.14387 2066 ft 196 kts 187°
2026-04-23 20:32 -23.00761 -43.14640 2081 ft 201 kts 187°
2026-04-23 20:32 -23.02155 -43.14888 2074 ft 204 kts 187°
2026-04-23 20:32 -23.03566 -43.15137 2080 ft 207 kts 187°
2026-04-23 20:32 -23.04945 -43.15505 2073 ft 209 kts 204°
2026-04-23 20:33 -23.06040 -43.16522 2088 ft 210 kts 234°
2026-04-23 20:33 -23.06560 -43.18009 2079 ft 214 kts 257°
2026-04-23 20:33 -23.06791 -43.19613 2080 ft 215 kts 261°
2026-04-23 20:33 -23.06994 -43.21221 2080 ft 214 kts 261°
2026-04-23 20:34 -23.07197 -43.22812 2083 ft 212 kts 261°
2026-04-23 20:34 -23.07390 -43.24393 2072 ft 211 kts 263°
2026-04-23 20:34 -23.07484 -43.25972 2077 ft 209 kts 266°
2026-04-23 20:34 -23.07555 -43.27548 2075 ft 209 kts 266°
2026-04-23 20:35 -23.07632 -43.29127 2080 ft 209 kts 266°
2026-04-23 20:35 -23.07718 -43.30703 2077 ft 208 kts 266°
2026-04-23 20:35 -23.07822 -43.32270 2080 ft 209 kts 264°
2026-04-23 20:35 -23.07951 -43.33825 2074 ft 210 kts 264°
2026-04-23 20:36 -23.08085 -43.35408 2074 ft 210 kts 264°
2026-04-23 20:36 -23.08224 -43.36985 2076 ft 211 kts 264°
2026-04-23 20:36 -23.08362 -43.38567 2076 ft 211 kts 264°
2026-04-23 20:36 -23.08498 -43.40146 2080 ft 210 kts 264°
2026-04-23 20:37 -23.08626 -43.41732 2076 ft 210 kts 264°
2026-04-23 20:37 -23.08758 -43.43324 2078 ft 211 kts 264°
2026-04-23 20:37 -23.08887 -43.44915 2078 ft 211 kts 264°
2026-04-23 20:37 -23.09016 -43.46495 2078 ft 208 kts 264°
2026-04-23 20:38 -23.09148 -43.48064 2082 ft 210 kts 264°
2026-04-23 20:38 -23.09280 -43.49638 2083 ft 209 kts 264°
2026-04-23 20:38 -23.09415 -43.51193 2086 ft 209 kts 264°
2026-04-23 20:38 -23.09563 -43.52774 2079 ft 209 kts 261°
2026-04-23 20:39 -23.09905 -43.54305 2087 ft 209 kts 253°
2026-04-23 20:39 -23.10306 -43.55822 2091 ft 209 kts 253°
2026-04-23 20:39 -23.10706 -43.57352 2091 ft 210 kts 252°
2026-04-23 20:39 -23.11101 -43.58888 2088 ft 212 kts 253°
2026-04-23 20:40 -23.11488 -43.60423 2084 ft 210 kts 254°
2026-04-23 20:40 -23.11873 -43.61951 2091 ft 211 kts 253°
2026-04-23 20:40 -23.12259 -43.63478 2083 ft 210 kts 253°
2026-04-23 20:40 -23.12652 -43.65012 2087 ft 210 kts 254°
2026-04-23 20:41 -23.13043 -43.66540 2082 ft 209 kts 253°
2026-04-23 20:41 -23.13440 -43.68060 2085 ft 210 kts 254°
2026-04-23 20:41 -23.13838 -43.69583 2093 ft 209 kts 252°
2026-04-23 20:41 -23.14243 -43.71108 2088 ft 210 kts 253°
2026-04-23 20:42 -23.14645 -43.72639 2093 ft 211 kts 253°
2026-04-23 20:42 -23.15047 -43.74178 2092 ft 212 kts 253°
2026-04-23 20:42 -23.15441 -43.75698 2092 ft 211 kts 254°
2026-04-23 20:42 -23.15834 -43.77232 2095 ft 211 kts 253°
2026-04-23 20:43 -23.16229 -43.78769 2088 ft 211 kts 253°
2026-04-23 20:43 -23.16619 -43.80306 2091 ft 210 kts 253°
2026-04-23 20:43 -23.17011 -43.81832 2094 ft 209 kts 253°
2026-04-23 20:43 -23.17401 -43.83350 2094 ft 209 kts 253°
2026-04-23 20:44 -23.17793 -43.84870 2096 ft 208 kts 254°
2026-04-23 20:44 -23.18121 -43.86409 2098 ft 209 kts 257°
2026-04-23 20:44 -23.18420 -43.87939 2097 ft 210 kts 257°
2026-04-23 20:44 -23.18724 -43.89490 2102 ft 209 kts 257°
2026-04-23 20:45 -23.19026 -43.91031 2102 ft 208 kts 257°
2026-04-23 20:45 -23.19328 -43.92579 2105 ft 210 kts 257°
2026-04-23 20:45 -23.19633 -43.94132 2103 ft 210 kts 257°
2026-04-23 20:45 -23.19940 -43.95686 2105 ft 210 kts 257°
2026-04-23 20:46 -23.20251 -43.97242 2109 ft 210 kts 257°
2026-04-23 20:46 -23.20550 -43.98759 2288 ft 201 kts 258°
2026-04-23 20:46 -23.20833 -44.00228 2472 ft 196 kts 258°
2026-04-23 20:46 -23.21111 -44.01652 2677 ft 190 kts 257°
2026-04-23 20:47 -23.21381 -44.03024 2940 ft 183 kts 257°
2026-04-23 20:47 -23.21538 -44.04385 3139 ft 181 kts 277°
2026-04-23 20:47 -23.21050 -44.05612 3344 ft 178 kts 312°
2026-04-23 20:47 -23.20029 -44.06301 3555 ft 173 kts 347°
2026-04-23 20:48 -23.18854 -44.06279 3779 ft 168 kts 13°
2026-04-23 20:48 -23.17744 -44.06012 4021 ft 164 kts 15°
2026-04-23 20:48 -23.16637 -44.05711 4253 ft 164 kts 17°
2026-04-23 20:48 -23.15538 -44.05379 4476 ft 164 kts 17°
2026-04-23 20:49 -23.14440 -44.05041 4694 ft 165 kts 17°
2026-04-23 20:49 -23.13332 -44.04694 4936 ft 166 kts 17°
2026-04-23 20:49 -23.12223 -44.04344 5174 ft 166 kts 17°
2026-04-23 20:49 -23.11116 -44.03989 5407 ft 166 kts 17°
2026-04-23 20:50 -23.10011 -44.03629 5634 ft 165 kts 17°
2026-04-23 20:50 -23.08910 -44.03263 5866 ft 165 kts 18°
2026-04-23 20:50 -23.07813 -44.02897 6085 ft 165 kts 17°
2026-04-23 20:50 -23.06709 -44.02520 6205 ft 171 kts 18°
2026-04-23 20:51 -23.05523 -44.02113 6141 ft 185 kts 17°
2026-04-23 20:51 -23.04270 -44.01686 6130 ft 192 kts 17°
2026-04-23 20:51 -23.02970 -44.01292 6119 ft 196 kts
2026-04-23 20:51 -23.01633 -44.01515 6127 ft 198 kts 336°
2026-04-23 20:52 -23.00569 -44.02448 6128 ft 200 kts 307°
2026-04-23 20:52 -23.00066 -44.03849 6130 ft 203 kts 277°
2026-04-23 20:52 -23.00215 -44.05349 6131 ft 205 kts 256°
2026-04-23 20:52 -23.00631 -44.06863 6134 ft 207 kts 254°
2026-04-23 20:53 -23.01058 -44.08335 6140 ft 207 kts 253°
2026-04-23 20:53 -23.01490 -44.09830 6140 ft 207 kts 254°
2026-04-23 20:53 -23.01928 -44.11323 6144 ft 208 kts 253°
2026-04-23 20:53 -23.02369 -44.12820 6142 ft 208 kts 253°
2026-04-23 20:54 -23.02811 -44.14315 6139 ft 208 kts 253°
2026-04-23 20:54 -23.03255 -44.15807 6135 ft 207 kts 253°
2026-04-23 20:54 -23.03697 -44.17290 6148 ft 206 kts 254°
2026-04-23 20:54 -23.04140 -44.18780 6145 ft 207 kts 253°
2026-04-23 20:55 -23.04581 -44.20275 6139 ft 208 kts 254°
2026-04-23 20:55 -23.05015 -44.21749 6144 ft 208 kts 254°
2026-04-23 20:55 -23.05455 -44.23244 6143 ft 208 kts 253°
2026-04-23 20:55 -23.05894 -44.24739 6147 ft 208 kts 253°
2026-04-23 20:56 -23.06341 -44.26236 6147 ft 208 kts 253°
2026-04-23 20:56 -23.06783 -44.27733 6144 ft 208 kts 253°
2026-04-23 20:56 -23.07224 -44.29231 6148 ft 209 kts 253°
2026-04-23 20:56 -23.07671 -44.30734 6142 ft 208 kts 253°
2026-04-23 20:57 -23.08110 -44.32234 6140 ft 208 kts 253°
2026-04-23 20:57 -23.08553 -44.33729 6139 ft 208 kts 253°
2026-04-23 20:57 -23.09001 -44.35224 6143 ft 208 kts 254°
2026-04-23 20:57 -23.09443 -44.36722 6142 ft 208 kts 253°
2026-04-23 20:58 -23.09890 -44.38218 6146 ft 208 kts 253°
2026-04-23 20:58 -23.10322 -44.39681 6249 ft 203 kts 253°
2026-04-23 20:58 -23.10754 -44.41146 6251 ft 205 kts 253°
2026-04-23 20:58 -23.11191 -44.42628 6253 ft 206 kts 253°
2026-04-23 20:59 -23.11628 -44.44115 6245 ft 207 kts 253°
2026-04-23 20:59 -23.12066 -44.45610 6248 ft 207 kts 254°
2026-04-23 20:59 -23.12506 -44.47105 6244 ft 207 kts 253°
2026-04-23 20:59 -23.12942 -44.48597 6246 ft 207 kts 253°
2026-04-23 21:00 -23.13377 -44.50089 6247 ft 207 kts 253°
2026-04-23 21:00 -23.13812 -44.51585 6246 ft 207 kts 253°
2026-04-23 21:00 -23.14248 -44.53083 6248 ft 207 kts 253°
2026-04-23 21:00 -23.14678 -44.54559 6248 ft 208 kts 253°
2026-04-23 21:01 -23.15113 -44.56054 6252 ft 208 kts 253°
2026-04-23 21:01 -23.15547 -44.57555 6255 ft 208 kts 256°
2026-04-23 21:01 -23.15590 -44.59115 6260 ft 206 kts 280°
2026-04-23 21:01 -23.15315 -44.60649 6246 ft 207 kts 283°
2026-04-23 21:02 -23.15020 -44.62172 6257 ft 206 kts 283°
2026-04-23 21:02 -23.14722 -44.63696 6251 ft 206 kts 283°
2026-04-23 21:02 -23.14424 -44.65224 6254 ft 206 kts 283°
2026-04-23 21:02 -23.14126 -44.66756 6251 ft 207 kts 283°
2026-04-23 21:03 -23.13832 -44.68287 6259 ft 207 kts 283°
2026-04-23 21:03 -23.13535 -44.69815 6259 ft 207 kts 283°
2026-04-23 21:03 -23.13237 -44.71348 6258 ft 207 kts 284°
2026-04-23 21:03 -23.12907 -44.72870 6256 ft 207 kts 285°
2026-04-23 21:04 -23.12562 -44.74372 6262 ft 208 kts 286°
2026-04-23 21:04 -23.12216 -44.75897 6258 ft 209 kts 286°
2026-04-23 21:04 -23.11874 -44.77430 6259 ft 209 kts 285°
2026-04-23 21:04 -23.11537 -44.78963 6261 ft 209 kts 285°
2026-04-23 21:05 -23.11205 -44.80508 6257 ft 210 kts 286°
2026-04-23 21:05 -23.10872 -44.82047 6241 ft 210 kts 286°
2026-04-23 21:05 -23.10526 -44.83587 6251 ft 208 kts 285°
2026-04-23 21:05 -23.10180 -44.85119 6247 ft 208 kts 285°
2026-04-23 21:06 -23.09834 -44.86652 6242 ft 209 kts 286°
2026-04-23 21:06 -23.09500 -44.88155 6254 ft 207 kts 285°
2026-04-23 21:06 -23.09166 -44.89677 6251 ft 207 kts 286°
2026-04-23 21:06 -23.08828 -44.91193 6253 ft 207 kts 285°
2026-04-23 21:07 -23.08494 -44.92710 6252 ft 207 kts 285°
2026-04-23 21:07 -23.08154 -44.94226 6253 ft 206 kts 287°
2026-04-23 21:07 -23.07654 -44.95685 6250 ft 207 kts 295°
2026-04-23 21:07 -23.07070 -44.97156 6026 ft 217 kts 295°
2026-04-23 21:08 -23.06454 -44.98681 5810 ft 224 kts 295°
2026-04-23 21:08 -23.05865 -45.00260 5605 ft 227 kts 289°
2026-04-23 21:08 -23.05360 -45.01883 5530 ft 224 kts 292°
2026-04-23 21:08 -23.04749 -45.03406 5561 ft 217 kts 297°
2026-04-23 21:09 -23.04100 -45.04871 5566 ft 213 kts 297°
2026-04-23 21:09 -23.03461 -45.06311 5569 ft 211 kts 298°
2026-04-23 21:09 -23.02823 -45.07743 5562 ft 211 kts 298°
2026-04-23 21:09 -23.02190 -45.09183 5559 ft 212 kts 298°
2026-04-23 21:10 -23.01562 -45.10610 5557 ft 212 kts 297°
2026-04-23 21:10 -23.00917 -45.12052 5557 ft 212 kts 297°
2026-04-23 21:10 -23.00272 -45.13491 5554 ft 212 kts 297°
2026-04-23 21:10 -22.99629 -45.14930 5550 ft 212 kts 297°
2026-04-23 21:11 -22.98983 -45.16368 5558 ft 212 kts 298°
2026-04-23 21:11 -22.98335 -45.17797 5550 ft 210 kts 297°
2026-04-23 21:11 -22.97690 -45.19218 5549 ft 210 kts 297°
2026-04-23 21:11 -22.97263 -45.20153 5547 ft 209 kts 298°
2026-04-23 21:12 -22.96410 -45.22057 5553 ft 210 kts 297°
2026-04-23 21:12 -22.95772 -45.23489 5547 ft 211 kts 297°
2026-04-23 21:12 -22.95129 -45.24923 5545 ft 211 kts 298°
2026-04-23 21:12 -22.94479 -45.26358 5548 ft 212 kts 297°
2026-04-23 21:13 -22.93836 -45.27774 5544 ft 212 kts 298°
2026-04-23 21:13 -22.93175 -45.29205 5549 ft 211 kts 297°
2026-04-23 21:13 -22.92515 -45.30631 5547 ft 212 kts 297°
2026-04-23 21:13 -22.91787 -45.32009 5559 ft 210 kts 303°
2026-04-23 21:14 -22.90700 -45.33028 5558 ft 207 kts 337°
2026-04-23 21:14 -22.89288 -45.33267 5363 ft 210 kts
2026-04-23 21:14 -22.87925 -45.32695 5131 ft 213 kts 37°
2026-04-23 21:14 -22.86937 -45.31520 4920 ft 213 kts 62°
2026-04-23 21:15 -22.86372 -45.30033 4677 ft 215 kts 70°
2026-04-23 21:15 -22.85878 -45.28489 4423 ft 218 kts 71°
2026-04-23 21:15 -22.85393 -45.26931 4178 ft 218 kts 71°
2026-04-23 21:15 -22.84911 -45.25373 3954 ft 217 kts 71°
2026-04-23 21:16 -22.84435 -45.23822 3751 ft 217 kts 72°
2026-04-23 21:16 -22.84124 -45.22799 3607 ft 216 kts 72°
2026-04-23 21:16 -22.83571 -45.21291 3347 ft 214 kts 59°
2026-04-23 21:16 -22.82163 -45.19908 2931 ft 201 kts 29°
2026-04-23 21:17 -22.80858 -45.19557 2819 ft 186 kts
2026-04-23 21:17 -22.79615 -45.19555 2767 ft 175 kts
2026-04-23 21:17 -22.78418 -45.19627 2638 ft 166 kts 356°
2026-04-23 21:17 -22.77677 -45.19690 2653 ft 158 kts 356°
2026-04-23 21:18 -22.76685 -45.19865 2663 ft 122 kts 330°
2026-04-23 21:18 -22.76387 -45.20570 2670 ft 115 kts 253°
2026-04-23 21:18 -22.77006 -45.20896 2465 ft 113 kts 156°
2026-04-23 21:18 -22.77754 -45.20549 2034 ft 116 kts 172°
2026-04-23 21:19 -22.78538 -45.20493 1792 ft 108 kts 177°
2026-04-23 21:19 -22.79228 -45.20479 1777 ft 93 kts 182°
2026-04-23 21:19 -22.79882 -45.20474 1865 ft 99 kts 175°
2026-04-23 21:19 -22.80485 -45.20249 2053 ft 92 kts 120°
2026-04-23 21:20 -22.80470 -45.19623 2153 ft 89 kts 38°
2026-04-23 21:20 -22.79943 -45.19254 2230 ft 93 kts 14°
2026-04-23 21:20 -22.79359 -45.19448 2325 ft 88 kts 322°
2026-04-23 21:20 -22.78757 -45.19626 2347 ft 96 kts
2026-04-23 21:21 -22.78113 -45.19558 2448 ft 93 kts
2026-04-23 21:21 -22.77460 -45.19535 2546 ft 94 kts
2026-04-23 21:21 -22.76803 -45.19563 2656 ft 94 kts 356°
2026-04-23 21:21 -22.76142 -45.19638 2757 ft 97 kts 355°
2026-04-23 21:22 -22.75470 -45.19680 2867 ft 97 kts 358°
2026-04-23 21:22 -22.74809 -45.19824 2918 ft 100 kts 332°
2026-04-23 21:22 -22.74501 -45.20448 3026 ft 99 kts 276°
2026-04-23 21:22 -22.74824 -45.21137 2903 ft 116 kts 205°
2026-04-23 21:23 -22.75589 -45.20978 2669 ft 122 kts 144°
2026-04-23 21:23 -22.76330 -45.20612 2425 ft 114 kts 169°
2026-04-23 21:23 -22.77098 -45.20503 2219 ft 111 kts 176°
2026-04-23 21:23 -22.77874 -45.20504 1972 ft 112 kts 178°
2026-04-23 21:24 -22.78644 -45.20482 1772 ft 107 kts 179°
2026-04-23 21:24 -22.79300 -45.20474 1754 ft 68 kts 180°
2026-04-23 21:24 -22.79574 -45.20469 1753 ft 28 kts 179°
2026-04-23 21:24 -22.79730 -45.20467 1752 ft 20 kts 179°
2026-04-23 21:25 -22.79812 -45.20465 1749 ft 10 kts 178°
2026-04-23 21:25 -22.79828 -45.20465 1751 ft 0 kts 178°
2026-04-23 21:25 -22.79808 -45.20475 1749 ft 11 kts
2026-04-23 21:26 -22.79754 -45.20457 1750 ft 1 kts 57°
2026-04-23 21:26 -22.79749 -45.20409 1753 ft 11 kts 87°
2026-04-23 21:26 -22.79748 -45.20335 1753 ft 11 kts 87°
2026-04-23 21:26 -22.79742 -45.20311 1752 ft 0 kts 28°
2026-04-23 21:27 -22.79727 -45.20310 1750 ft 3 kts 359°
2026-04-23 21:27 -22.79706 -45.20304 1754 ft 1 kts 82°
2026-04-23 21:27 -22.79714 -45.20297 1751 ft 0 kts 191°